Location: Albany
(35.0000°S, 118.0000°E)
Time: 23:41:59
(UTC-05:00)

CZ-4B R/B - Visible Passes

Search period start: 09 February 2016 00:00
Search period end: 19 February 2016 00:00
Orbit: 489 x 661 km, 97.7° (Epoch: 09 February)

Date Brightness Start Highest point End Pass type
(mag) Time Alt. Az. Time Alt. Az. Time Alt. Az.
09 Feb 5.9 13:00:59 12° E 13:02:17 13° ESE 13:04:28 10° SE visible
09 Feb 3.3 14:37:13 53° W 14:37:13 53° W 14:41:29 10° SSW visible
10 Feb 5.8 13:04:34 14° E 13:05:40 15° ESE 13:08:09 10° SSE visible
10 Feb 3.5 14:40:49 48° W 14:40:49 48° W 14:44:53 10° SSW visible
11 Feb 5.8 13:08:11 15° E 13:09:04 16° ESE 13:11:49 10° SSE visible
11 Feb 3.7 14:44:25 43° WSW 14:44:25 43° WSW 14:48:16 10° SSW visible
12 Feb 5.7 13:11:47 17° ESE 13:12:27 17° ESE 13:15:25 10° SSE visible
12 Feb 3.8 14:48:00 38° WSW 14:48:00 38° WSW 14:51:38 10° SSW visible
13 Feb 5.6 13:15:22 18° ESE 13:15:50 19° ESE 13:19:00 10° SSE visible
13 Feb 4.0 14:51:36 34° WSW 14:51:36 34° WSW 14:54:59 10° SSW visible
14 Feb 5.5 13:18:58 20° ESE 13:19:12 20° ESE 13:22:33 10° SSE visible
14 Feb 4.2 14:55:13 30° WSW 14:55:13 30° WSW 14:58:20 10° SSW visible
15 Feb 5.4 13:22:34 22° ESE 13:22:35 22° ESE 13:26:05 10° SSE visible
15 Feb 4.3 14:58:49 27° WSW 14:58:49 27° WSW 15:01:39 10° SW visible
16 Feb 5.3 13:26:09 24° ESE 13:26:09 24° ESE 13:29:36 10° SSE visible
16 Feb 4.5 15:02:24 24° WSW 15:02:24 24° WSW 15:04:57 10° SW visible
17 Feb 5.2 13:29:45 25° ESE 13:29:45 25° ESE 13:33:04 10° SSE visible
17 Feb 4.7 15:06:00 22° WSW 15:06:00 22° WSW 15:08:15 10° SW visible
18 Feb 5.1 13:33:21 27° SE 13:33:21 27° SE 13:36:33 10° SSE visible
18 Feb 4.8 15:09:36 19° WSW 15:09:36 19° WSW 15:11:30 10° SW visible
